DELTA 1 DEB

Satellite information

Favourite Embed

Satellite Type and Status

DEBRISIN ORBIT

Key statistics

Satellite DELTA 1 DEB at a glance.

Uptime

18588

Days in orbit

Revolutions

≈ 14.9

Per day

Orbit

SSO

Sun Synchronous Orbit

Inclination

98.4

Latest

Satellite identification and parameters

Extended collection of information and parameters for DELTA 1 DEB.

Object identification

Identified? True

Debris? True

Object name: DELTA 1 DEB

International designator: 1975-004AN

Object number (NORAD): 8956

Object ID (CCSDS): 8956

Country: UNITED STATES OF AMERICA (US)

Current information (Y/N): Y

RCS size: LARGE

Orbital parameters

Period: 96.928 minutes

Inclination: 98.3598 deg

SMA: 6989.701 km

Apoapsis: 628.409 km

Periapsis: 594.724 km

RAAN: 158.1221 deg

Eccentricy: 0.0024096

Argument of periapsis: 159.6708 deg

Mean anomaly: 200.547 deg

Mean motion: 14.85644238 rev/day

Mean motion (dot): 0.00005703 rev/day2

B* drag term: 0.00066152053 1/REarth

Two-line elements (TLE)

Creation date: Dec. 12, 2025, 10:14 a.m.

Reference frame: TEME

Reference center: EARTH

Epoch: Dec. 12, 2025, 5:27 a.m. UTC

TLE line 0: 0 DELTA 1 DEB

TLE line 1: 1 08956U 75004AN 25346.22722171 .00005703 00000-0 66152-3 0 9996

TLE line 2: 2 08956 98.3598 158.1221 0024096 159.6708 200.5470 14.85644238634207

Live tracking on map

Real-time ground track for satellite DELTA 1 DEB.

In-orbit conjunctions

A list of the most updated potential collisions computed for object DELTA 1 DEB.

Target Orbit TCA Probability of collision Miss distance Type
SL-14 R/B LEO 2025-01-24 08:31:45 0.0001633374 63.0 (m) ROCKET BODY
CZ-6A DEB LEO 2024-12-24 09:05:32 0.0001113482 131.0 (m) DEBRIS
CZ-6A DEB LEO 2024-12-15 03:49:27 0.0001983702 790.0 (m) DEBRIS

Associated space launch

Earth observation satellite

DELTA 1 DEB was lifted into orbit during the mission ‘Delta 2910 | Landsat 2’, on board a Delta 2910 space rocket.

The launch took place on Jan. 22, 1975, 5:55 p.m. from Space Launch Complex 2W.

For more information about the launch, click the button.

Launch to space Delta 2910 | Landsat 2
Delta 2910 | Landsat 2

Agency: N/A

Status: Launch Successful

Launch date: Jan. 22, 1975, 5:55 p.m. UTC

Rocket: Delta 2910

Launch pad: Space Launch Complex 2W

Location: Vandenberg SFB, CA, USA

...

Latest news about this satellite

There are no fresh news available about this satellite. Check back as we update our databases every day.


Newsletter sign-up

Weekly statistics, charts and insights to help you stay on top of the space industry.